Location: Laguna de la Cañada del Gallo
(40.3974°N, 5.2096°W)
Time: 13:45:28
(UTC+00:00)

Cosmos 2297 Rocket - Pass Details

Date: 18 April 2024
Orbit: 840 x 841 km, 71.0° (Epoch: 26 May)

Event Time Altitude Azimuth Distance (km) Brightness Sun altitude
Rises 20:30:47 0° 344° (NNW) 3,403 6.1 -16.1°
Reaches altitude 10° 20:33:32 10° 355° (N) 2,465 5.1 -16.5°
Maximum altitude 20:38:32 31° 57° (ENE) 1,425 3.2 -17.4°
Enters shadow 20:40:30 25° 93° (E) 1,630 3.2 -17.7°
